Home   Weather   Topeka   Past weeks

Flag for USA Past Weather in Topeka, Kansas, USA — Yesterday and Last 2 Weeks

Now
65 °F

Clear.


Feels Like: 65 °F
Forecast: 65 / 82 °F
Wind: No wind

Location: Philip Billard Municipal Airport

Current Time: May 27, 2017 at 5:12:37 am

Latest Report: May 27, 2017 at 3:53 am


Visibility: 9 mi

Pressure: 29.78 "Hg

Humidity: 97%

Dew Point: 64 °F

Location of TopekaLocation

Past Weather in Topeka — Graph

°F

Topeka Temperature Yesterday

Maximum temperature yesterday: 85 °F (at 3:53 pm)
Minimum temperature yesterday: 61 °F (at 6:53 am)
Average temperature yesterday: 73 °F

High & Low Weather Summary for the Past Weeks

 TemperatureHumidityPressure
High88 °F (May 15, 2:53 pm)100% (May 13, 3:53 am)30.17 "Hg (May 13, 3:53 am)
Low45 °F (May 21, 5:53 am)29% (May 12, 4:53 pm)29.36 "Hg (May 17, 11:53 am)
Average66 °F76%29.80 "Hg
* Reported May 12 3:53 am — May 27 3:53 am, Topeka. Weather by CustomWeather, © 2017

Note: Actual official high and low records may vary slightly from our data, if they occured in-between our weather recording intervals... More about our weather records

Advertising

Topeka Weather History for the Previous 24 Hours

Scroll right to see more
 ConditionsComfort  
Time TempWeatherWind HumidityBarometerVisibility
3:53 am
Sat, May 27
65 °FClear.No wind97%29.78 "Hg9 mi
2:53 am64 °FFog.No wind100%29.80 "Hg6 mi
1:53 am66 °FClear.No wind96%29.80 "Hg8 mi
12:53 am67 °FClear.No wind97%29.79 "Hg10 mi
11:53 pm
Fri, May 26
68 °FClear.No wind96%29.80 "Hg10 mi
10:53 pm69 °FClear.No wind93%29.80 "Hg10 mi
9:53 pm73 °FClear.No wind84%29.78 "Hg10 mi
8:53 pm76 °FClear.No wind72%29.77 "Hg10 mi
7:53 pm83 °FSunny.No wind51%29.76 "Hg10 mi
6:53 pm85 °FSunny.3 mph48%29.75 "Hg10 mi
5:53 pm83 °FSunny.5 mph55%29.75 "Hg10 mi
4:53 pm84 °FSunny.6 mph55%29.74 "Hg10 mi
3:53 pm85 °FPassing clouds.7 mph51%29.74 "Hg10 mi
2:53 pm84 °FPassing clouds.6 mph55%29.73 "Hg10 mi
1:53 pm82 °FPartly sunny.6 mph58%29.73 "Hg10 mi
12:53 pm82 °FPassing clouds.9 mph63%29.72 "Hg10 mi
11:53 am79 °FScattered clouds.6 mph65%29.72 "Hg10 mi
9:53 am74 °FSunny.No wind71%29.71 "Hg10 mi
8:53 am70 °FSunny.No wind81%29.70 "Hg10 mi
7:53 am67 °FSunny.No wind87%29.68 "Hg10 mi
6:53 am61 °FSunny.3 mph100%29.67 "Hg10 mi
5:53 am62 °FClear.7 mph96%29.63 "Hg10 mi
Weather by CustomWeather, © 2017

See weather overviewHow to use our weather pages